Regional Weather Roundup
Issued by NWS Charleston, SC

Current Version | Previous Version | Graphics & Text | Print | Product List | Glossary On
Versions: 1 2 3 4 5 6 7 8 9 10 11 12 13 14 15 16 17 18 19 20 21 22 23 24 25 26 27 28 29 30 31 32 33 34 35 36 37 38 39 40 41 42 43 44 45 46 47 48 49 50
000
ASUS42 KCHS 262027
RWRCHS

REGIONAL WEATHER ROUNDUP
NATIONAL WEATHER SERVICE CHARLESTON SC
400 PM EDT WED APR 26 2017

NOTE: "FAIR" INDICATES FEW OR NO CLOUDS BELOW 12,000 FEET WITH NO
SIGNIFICANT WEATHER AND/OR OBSTRUCTIONS TO VISIBILITY.

NOT ALL STATIONS ARE QUALITY CONTROLLED. USE DATA WITH CAUTION...
ESPECIALLY DEWPOINT OBSERVATIONS.

SCZ027-030-031-034>040-042>050-262100-
...SOUTHEAST SOUTH CAROLINA...

CITY           SKY/WX    TMP DP  RH WIND       PRES   REMARKS
N CHARLESTON   MOSUNNY   82  59  45 S16       29.82S
WATERFRONT PRK   N/A     77  64  64 S8G15     29.81S
JOHNS ISLAND   FAIR      81  61  50 S13G18    29.84S
PINOPOLIS        N/A     82  63  51 VRB3      29.74F
MONCKS CORNER  MOCLDY    82  57  42 S8        29.80F
SUMMERVILLE    MOCLDY    81  61  50 S8        29.82S
BEAUFORT MCAS  MOSUNNY   83  63  50 SE9       29.82F
BEAUFORT ARPT  FAIR      79  55  44 SW7       29.83S
HILTON HEAD IS NOT AVBL
WALTERBORO     CLEAR     81  59  47 S9        29.82S
ALLENDALE      FAIR      84  59  42 VRB6      29.79F

...SOUTHERN MIDLANDS AND PEE DEE...

CITY           SKY/WX    TMP DP  RH WIND       PRES   REMARKS
GEORGETOWN     FAIR      81  61  50 S13       29.82S
KINGSTREE      FAIR      82  57  42 SW10      29.80S
ORANGEBURG     MOSUNNY   82  58  43 W7        29.80F
BARNWELL       FAIR      86  61  42 SW9       29.80S
AIKEN          FAIR      81  55  41 S3G16     29.83F
MANNING        FAIR      81  57  44 SW23G33   29.80S
COLUMBIA       MOSUNNY   86  56  35 SW3       29.78F
SUMTER         MOSUNNY   84  58  41 SW10      29.77F
FLORENCE       MOSUNNY   83  62  49 S12G20    29.79F
MYRTLE BEACH   MOSUNNY   75  70  83 S15       29.83F
N MYRTLE BEACH SUNNY     75  67  76 S12       29.82F

$$

GAZ063-065-086>088-099>101-113>116-118-119-134>141-150-262100-
...SOUTHEAST GEORGIA...

CITY           SKY/WX    TMP DP  RH WIND       PRES   REMARKS
SAVANNAH ARPT  MOSUNNY   85  56  37 SE10      29.81F
HUNTER AAF     SUNNY     82  62  50 SE8       29.79F
FORT STEWART   MOSUNNY   83  59  43 S3        29.79F
STATESBORO     MOSUNNY   85  56  37 SW6       29.80F
SYLVANIA       CLEAR    N/A N/A N/A SW3       29.81F
CLAXTON        MOCLDY    82  62  50 CALM      29.80F

...CSRA...CENTRAL AND FAR SOUTHEAST GEORGIA...

CITY           SKY/WX    TMP DP  RH WIND       PRES   REMARKS
THOMSON        SUNNY     83  58  42 W5        29.84F HAZE
AUGUSTA-BUSH   SUNNY     86  60  41 SW9G20    29.78F
AUGUSTA-DANIEL SUNNY     85  54  34 SW8       29.80F
SWAINSBORO     FAIR      82  57  42 SW6       29.81F
VIDALIA        PTSUNNY   84  57  39 SW6       29.81F
EASTMAN        MOCLDY    83  41  22 S3        29.83F
HAZLEHURST     MOCLDY    84  58  41 SW7       29.80F
ALMA           MOSUNNY   83  57  41 VRB3      29.81F
WAYCROSS       MOSUNNY   85  60  41 SW7       29.80F
JESUP          FAIR      86  52  30 NW3       29.81S
BAXLEY         FAIR      81  61  50 SW5       29.80F
BRUNSWICK      SUNNY     82  64  54 S9G17     29.82S
SAINT SIMONS   SUNNY     79  60  52 SE12      29.82F

$$

SCZ027-028-034-036>038-045-046-048>050-GAZ119-141-262100-
...LAKE AND SUPPLEMENTAL COASTAL OBSERVATIONS...

STATION/POSITION TIME  TEMP    WIND        PRES    WAVE   SWELL
                       AIR SEA DIR/SP/G            HT/PER HT/PER/DIR
                 (UTC) (F)     (DEG/KT/KT) (MB)    (FT/S) (FT/S/D)
WINYAH BAY       1945   80     190/ 13     1009.0F
LAKE MURRAY      1950   81     280/  4/  7 1008.5F
ACE BASIN NERRS  1930   79     180/  2     1010.0S
FORT PULASKI     2000   77 75  160/  7/ 11 1010.3
SAPELO ISLAND    1945   81     150/  7     1010.0F

$$

ANZ835-935-AMZ111-154-330-350-352-354-370-450-454-472-262100-
...C-MAN AND BUOY OBSERVATIONS...

STATION/POSITION TIME  TEMP    WIND        PRES    WAVE   SWELL
                       AIR SEA DIR/SP/G            HT/PER HT/PER/DIR
                 (UTC) (F)     (DEG/KT/KT) (MB)    (FT/S) (FT/S/D)
BUOY 41004       2000   73 73  220/ 12/ 16 1010.5
BUOY 41008       1950   71 74  150/  8/ 10 1010.2F   3/ 9   3/ 90/ 9
FOLLY BEACH CMAN 2000   74     210/ 14/ 16 1011.2S
CAPERS NEARSHORE 2008   76 73  220/ 14/ 17 1010.2R
FRIPP NEARSHORE  2008   74 73  190/  6/ 10 1010.1F


STATION/POSITION TIME  TEMP    WIND        PRES    WAVE   SWELL
                       AIR SEA DIR/SP/G            HT/PER HT/PER/DIR
                 (UTC) (F)     (DEG/KT/KT) (MB)    (FT/S) (FT/S/D)
5E ST. MARYS GA  2000      74                N/A     2/ 9   2/100/11
FRYING PAN BUOY  2010   74 75  190/ 12/ 14 1010.1
BUOY 41025       1950   70 77  260/ 12/ 14 1009.5F   6/ 9   5/140/ 9
CAPE LOOKOUT NC  2000   70     210/ 13/ 16 1009.2F
BUOY 41002       1950   71 75  280/ 10/ 14 1012.5F   8/ 8   7/150/ 8
BUOY 41010       2010   76 78  220/ 16/ 17 1012.1
ST AUGUSTINE FL  2000   73 76  130/ 13/ 15 1011.1F


$$




USA.gov is the U.S. government's official web portal to all federal, state and local government web resources and services.